Time,TemperatureF,DewpointF,PressureIn,WindDirection,WindDirectionDegrees,WindSpeedMPH,WindSpeedGustMPH,Humidity,HourlyPrecipIn,Conditions,Clouds,dailyrainin,SoftwareType,DateUTC
2013-01-06 00:00:00,25.1,22.9,30.27,NE,35,1.0,3.0,91,0.00,,---,0.00,VWS V14.01,2013-01-06 08:00:00,
2013-01-06 00:05:00,24.6,22.4,30.27,NE,37,0.0,2.0,91,0.00,,---,0.00,VWS V14.01,2013-01-06 08:05:00,
2013-01-06 00:10:00,25.3,23.3,30.27,NE,47,2.0,3.0,92,0.00,,---,0.00,VWS V14.01,2013-01-06 08:10:00,
2013-01-06 00:15:00,25.7,23.7,30.26,NE,48,2.0,3.0,92,0.00,,---,0.00,VWS V14.01,2013-01-06 08:15:00,
2013-01-06 00:20:00,25.4,23.4,30.26,NE,48,0.0,2.0,92,0.00,,---,0.00,VWS V14.01,2013-01-06 08:20:00,
2013-01-06 00:25:00,25.8,23.8,30.26,NE,48,0.0,2.0,92,0.00,,---,0.00,VWS V14.01,2013-01-06 08:25:00,
2013-01-06 00:30:00,25.9,23.6,30.26,NE,48,0.0,2.0,91,0.00,,---,0.00,VWS V14.01,2013-01-06 08:30:00,
2013-01-06 00:35:00,25.7,23.4,30.26,NE,48,0.0,0.0,91,0.00,,---,0.00,VWS V14.01,2013-01-06 08:35:00,
2013-01-06 00:40:00,25.5,23.5,30.26,NE,48,0.0,0.0,92,0.00,,---,0.00,VWS V14.01,2013-01-06 08:40:00,
2013-01-06 00:45:00,24.5,22.0,30.26,NE,48,0.0,0.0,90,0.00,,---,0.00,VWS V14.01,2013-01-06 08:45:00,
2013-01-06 00:50:00,23.7,21.5,30.25,NE,48,0.0,0.0,91,0.00,,---,0.00,VWS V14.01,2013-01-06 08:50:00,
2013-01-06 00:55:00,23.4,21.2,30.25,NE,48,0.0,0.0,91,0.00,,---,0.00,VWS V14.01,2013-01-06 08:55:00,
2013-01-06 01:00:00,23.0,20.8,30.25,NE,48,0.0,0.0,91,0.00,,---,0.00,VWS V14.01,2013-01-06 09:00:00,
2013-01-06 01:05:00,22.3,20.1,30.25,NE,48,0.0,0.0,91,0.00,,---,0.00,VWS V14.01,2013-01-06 09:05:00,
2013-01-06 01:10:00,22.4,20.4,30.25,NE,48,0.0,0.0,92,0.00,,---,0.00,VWS V14.01,2013-01-06 09:10:00,
2013-01-06 01:15:00,23.0,21.3,30.25,NE,48,0.0,0.0,93,0.00,,---,0.00,VWS V14.01,2013-01-06 09:15:00,
2013-01-06 01:20:00,22.8,20.8,30.25,NE,48,0.0,1.0,92,0.00,,---,0.00,VWS V14.01,2013-01-06 09:20:00,
2013-01-06 01:25:00,22.5,20.5,30.25,NE,48,0.0,1.0,92,0.00,,---,0.00,VWS V14.01,2013-01-06 09:25:00,
2013-01-06 01:30:00,21.6,19.4,30.26,NE,48,0.0,1.0,91,0.00,,---,0.00,VWS V14.01,2013-01-06 09:30:00,
2013-01-06 01:35:00,20.8,18.6,30.26,NE,48,0.0,0.0,91,0.00,,---,0.00,VWS V14.01,2013-01-06 09:35:00,
2013-01-06 01:40:00,19.7,17.2,30.26,NE,48,0.0,0.0,90,0.00,,---,0.00,VWS V14.01,2013-01-06 09:40:00,
2013-01-06 01:45:00,19.7,17.5,30.26,NE,48,0.0,0.0,91,0.00,,---,0.00,VWS V14.01,2013-01-06 09:45:00,
2013-01-06 01:50:00,19.7,17.8,30.27,NE,48,0.0,0.0,92,0.00,,---,0.00,VWS V14.01,2013-01-06 09:50:00,
2013-01-06 01:55:00,19.8,17.9,30.27,NE,48,0.0,0.0,92,0.00,,---,0.00,VWS V14.01,2013-01-06 09:55:00,
2013-01-06 02:00:00,19.7,17.8,30.27,NE,48,0.0,0.0,92,0.00,,---,0.00,VWS V14.01,2013-01-06 10:00:00,
2013-01-06 02:05:00,19.9,18.2,30.27,NE,48,0.0,0.0,93,0.00,,---,0.00,VWS V14.01,2013-01-06 10:05:00,
2013-01-06 02:10:00,19.7,18.0,30.27,NE,48,0.0,0.0,93,0.00,,---,0.00,VWS V14.01,2013-01-06 10:10:00,
2013-01-06 02:15:00,19.7,18.0,30.28,NE,48,0.0,0.0,93,0.00,,---,0.00,VWS V14.01,2013-01-06 10:15:00,
2013-01-06 02:20:00,19.7,18.0,30.28,NE,48,0.0,0.0,93,0.00,,---,0.00,VWS V14.01,2013-01-06 10:20:00,
2013-01-06 02:25:00,20.2,18.5,30.27,NE,48,0.0,0.0,93,0.00,,---,0.00,VWS V14.01,2013-01-06 10:25:00,
2013-01-06 02:30:00,20.9,19.2,30.27,NE,48,0.0,0.0,93,0.00,,---,0.00,VWS V14.01,2013-01-06 10:30:00,
2013-01-06 02:35:00,21.5,19.8,30.27,NE,48,2.0,3.0,93,0.00,,---,0.00,VWS V14.01,2013-01-06 10:35:00,
2013-01-06 02:40:00,21.7,20.0,30.27,NE,48,1.0,3.0,93,0.00,,---,0.00,VWS V14.01,2013-01-06 10:40:00,
2013-01-06 02:45:00,21.7,20.0,30.26,NE,48,2.0,3.0,93,0.00,,---,0.00,VWS V14.01,2013-01-06 10:45:00,
2013-01-06 02:50:00,21.9,20.2,30.27,NE,48,2.0,3.0,93,0.00,,---,0.00,VWS V14.01,2013-01-06 10:50:00,
2013-01-06 02:55:00,22.5,20.8,30.27,NE,48,2.0,3.0,93,0.00,,---,0.00,VWS V14.01,2013-01-06 10:55:00,
2013-01-06 03:00:00,22.9,21.2,30.27,NE,48,0.0,3.0,93,0.00,,---,0.00,VWS V14.01,2013-01-06 11:00:00,
2013-01-06 03:05:00,23.1,21.4,30.27,NE,48,0.0,0.0,93,0.00,,---,0.00,VWS V14.01,2013-01-06 11:05:00,
2013-01-06 03:10:00,23.4,21.7,30.27,NE,48,0.0,0.0,93,0.00,,---,0.00,VWS V14.01,2013-01-06 11:10:00,
2013-01-06 03:15:00,23.6,21.9,30.27,NE,48,0.0,0.0,93,0.00,,---,0.00,VWS V14.01,2013-01-06 11:15:00,
2013-01-06 03:20:00,23.7,22.0,30.27,NE,48,0.0,0.0,93,0.00,,---,0.00,VWS V14.01,2013-01-06 11:20:00,
2013-01-06 03:25:00,23.8,22.1,30.27,NE,48,0.0,0.0,93,0.00,,---,0.00,VWS V14.01,2013-01-06 11:25:00,
2013-01-06 03:30:00,24.0,22.3,30.27,NE,48,0.0,0.0,93,0.00,,---,0.00,VWS V14.01,2013-01-06 11:30:00,
2013-01-06 03:35:00,24.3,22.3,30.27,NE,49,0.0,0.0,92,0.00,,---,0.00,VWS V14.01,2013-01-06 11:35:00,
2013-01-06 03:40:00,24.4,22.4,30.27,NE,49,0.0,0.0,92,0.00,,---,0.00,VWS V14.01,2013-01-06 11:40:00,
2013-01-06 03:45:00,24.4,22.4,30.26,NE,48,0.0,0.0,92,0.00,,---,0.00,VWS V14.01,2013-01-06 11:45:00,
2013-01-06 03:50:00,24.4,22.2,30.27,NE,48,0.0,0.0,91,0.00,,---,0.00,VWS V14.01,2013-01-06 11:50:00,
2013-01-06 03:55:00,24.4,22.2,30.27,NE,49,0.0,0.0,91,0.00,,---,0.00,VWS V14.01,2013-01-06 11:55:00,
2013-01-06 04:00:00,24.3,22.1,30.27,NE,48,0.0,0.0,91,0.00,,---,0.00,VWS V14.01,2013-01-06 12:00:00,
2013-01-06 04:05:00,24.4,22.4,30.27,NE,49,0.0,0.0,92,0.00,,---,0.00,VWS V14.01,2013-01-06 12:05:00,
2013-01-06 04:10:00,24.7,22.7,30.27,NE,48,0.0,0.0,92,0.00,,---,0.00,VWS V14.01,2013-01-06 12:10:00,
2013-01-06 04:15:00,24.9,22.9,30.27,NE,48,0.0,0.0,92,0.00,,---,0.00,VWS V14.01,2013-01-06 12:15:00,
2013-01-06 04:20:00,25.0,23.0,30.27,NE,49,0.0,0.0,92,0.00,,---,0.00,VWS V14.01,2013-01-06 12:20:00,
2013-01-06 04:25:00,25.0,23.0,30.27,NE,48,0.0,0.0,92,0.00,,---,0.00,VWS V14.01,2013-01-06 12:25:00,
2013-01-06 04:30:00,25.0,23.0,30.27,NE,48,0.0,0.0,92,0.00,,---,0.00,VWS V14.01,2013-01-06 12:30:00,
2013-01-06 04:35:00,25.0,23.0,30.26,NE,49,0.0,0.0,92,0.00,,---,0.00,VWS V14.01,2013-01-06 12:35:00,
2013-01-06 04:40:00,24.9,22.9,30.26,NE,48,0.0,0.0,92,0.00,,---,0.00,VWS V14.01,2013-01-06 12:40:00,
2013-01-06 04:45:00,24.8,22.8,30.26,NE,49,0.0,0.0,92,0.00,,---,0.00,VWS V14.01,2013-01-06 12:45:00,
2013-01-06 04:50:00,24.8,22.8,30.26,NE,48,0.0,0.0,92,0.00,,---,0.00,VWS V14.01,2013-01-06 12:50:00,
2013-01-06 04:55:00,24.9,22.9,30.26,NE,48,0.0,0.0,92,0.00,,---,0.00,VWS V14.01,2013-01-06 12:55:00,
2013-01-06 05:00:00,25.0,23.0,30.26,NE,48,0.0,0.0,92,0.00,,---,0.00,VWS V14.01,2013-01-06 13:00:00,
2013-01-06 05:05:00,25.1,22.9,30.26,NE,48,0.0,0.0,91,0.00,,---,0.00,VWS V14.01,2013-01-06 13:05:00,
2013-01-06 05:10:00,25.2,23.0,30.25,NE,48,0.0,0.0,91,0.00,,---,0.00,VWS V14.01,2013-01-06 13:10:00,
2013-01-06 05:15:00,25.3,23.0,30.25,NE,48,0.0,0.0,91,0.00,,---,0.00,VWS V14.01,2013-01-06 13:15:00,
2013-01-06 05:20:00,25.4,23.1,30.25,NE,48,0.0,0.0,91,0.00,,---,0.00,VWS V14.01,2013-01-06 13:20:00,
2013-01-06 05:25:00,25.5,23.2,30.25,NE,48,0.0,0.0,91,0.00,,---,0.00,VWS V14.01,2013-01-06 13:25:00,
2013-01-06 05:30:00,25.5,23.2,30.25,NE,48,0.0,0.0,91,0.00,,---,0.00,VWS V14.01,2013-01-06 13:30:00,
2013-01-06 05:35:00,25.6,23.3,30.25,NE,48,0.0,0.0,91,0.00,,---,0.00,VWS V14.01,2013-01-06 13:35:00,
2013-01-06 05:40:00,25.6,23.3,30.24,NE,49,0.0,0.0,91,0.00,,---,0.00,VWS V14.01,2013-01-06 13:40:00,
2013-01-06 05:45:00,25.6,23.3,30.24,NE,50,0.0,0.0,91,0.00,,---,0.00,VWS V14.01,2013-01-06 13:45:00,
2013-01-06 05:50:00,25.6,23.3,30.24,ENE,59,0.0,2.0,91,0.00,,---,0.00,VWS V14.01,2013-01-06 13:50:00,
2013-01-06 05:55:00,25.5,23.2,30.24,ENE,59,0.0,2.0,91,0.00,,---,0.00,VWS V14.01,2013-01-06 13:55:00,
2013-01-06 06:00:00,25.5,23.2,30.24,ENE,59,0.0,2.0,91,0.00,,---,0.00,VWS V14.01,2013-01-06 14:00:00,
2013-01-06 06:05:00,25.4,23.1,30.24,ENE,59,0.0,0.0,91,0.00,,---,0.00,VWS V14.01,2013-01-06 14:05:00,
2013-01-06 06:09:00,25.4,23.1,30.24,ENE,59,0.0,0.0,91,0.00,,---,0.00,VWS V14.01,2013-01-06 14:09:00,
2013-01-06 06:14:00,25.4,23.1,30.24,ENE,59,0.0,0.0,91,0.00,,---,0.00,VWS V14.01,2013-01-06 14:14:00,
2013-01-06 06:15:00,25.1,22.6,30.26,NE,56,0.0,0.0,90,0.00,,---,0.00,VWS V14.01,2013-01-06 14:15:00,
2013-01-06 06:19:00,25.3,23.0,30.24,ENE,59,0.0,0.0,91,0.00,,---,0.00,VWS V14.01,2013-01-06 14:19:00,
2013-01-06 06:24:00,25.2,23.0,30.24,ENE,58,0.0,0.0,91,0.00,,---,0.00,VWS V14.01,2013-01-06 14:24:00,
2013-01-06 06:29:00,25.0,22.8,30.25,NE,56,0.0,0.0,91,0.00,,---,0.00,VWS V14.01,2013-01-06 14:29:00,
2013-01-06 06:30:00,24.8,22.5,30.26,NE,55,0.0,0.0,91,0.00,,---,0.00,VWS V14.01,2013-01-06 14:30:00,
2013-01-06 06:34:00,25.1,23.1,30.25,NE,55,0.0,0.0,92,0.00,,---,0.00,VWS V14.01,2013-01-06 14:34:00,
2013-01-06 06:39:00,25.1,22.9,30.25,NE,56,0.0,0.0,91,0.00,,---,0.00,VWS V14.01,2013-01-06 14:39:00,
2013-01-06 06:44:00,25.2,23.0,30.25,NE,55,0.0,0.0,91,0.00,,---,0.00,VWS V14.01,2013-01-06 14:44:00,
2013-01-06 06:45:00,24.8,22.5,30.27,North,360,0.0,4.0,91,0.00,,---,0.00,VWS V14.01,2013-01-06 14:45:00,
2013-01-06 06:49:00,25.3,22.8,30.25,NE,56,0.0,0.0,90,0.00,,---,0.00,VWS V14.01,2013-01-06 14:49:00,
2013-01-06 06:54:00,25.4,22.9,30.25,NE,55,0.0,0.0,90,0.00,,---,0.00,VWS V14.01,2013-01-06 14:54:00,
2013-01-06 06:59:00,25.4,22.9,30.25,NE,55,0.0,0.0,90,0.00,,---,0.00,VWS V14.01,2013-01-06 14:59:00,
2013-01-06 07:00:00,25.2,23.0,30.27,North,5,0.0,0.0,91,0.00,,---,0.00,VWS V14.01,2013-01-06 15:00:00,
2013-01-06 07:04:00,25.3,22.8,30.26,NE,55,0.0,0.0,90,0.00,,---,0.00,VWS V14.01,2013-01-06 15:04:00,
2013-01-06 07:09:00,25.3,22.8,30.26,NE,56,0.0,0.0,90,0.00,,---,0.00,VWS V14.01,2013-01-06 15:09:00,
2013-01-06 07:14:00,25.2,22.7,30.26,NE,55,0.0,0.0,90,0.00,,---,0.00,VWS V14.01,2013-01-06 15:14:00,
2013-01-06 07:15:00,25.5,23.0,30.27,North,360,0.0,0.0,90,0.00,,---,0.00,VWS V14.01,2013-01-06 15:15:00,
2013-01-06 07:19:00,24.9,22.4,30.26,NE,55,0.0,0.0,90,0.00,,---,0.00,VWS V14.01,2013-01-06 15:19:00,
2013-01-06 07:24:00,24.7,22.2,30.26,NE,55,0.0,0.0,90,0.00,,---,0.00,VWS V14.01,2013-01-06 15:24:00,
2013-01-06 07:29:00,24.8,22.5,30.26,NE,56,0.0,0.0,91,0.00,,---,0.00,VWS V14.01,2013-01-06 15:29:00,
2013-01-06 07:30:00,25.7,22.9,30.27,North,5,0.0,0.0,89,0.00,,---,0.00,VWS V14.01,2013-01-06 15:30:00,
2013-01-06 07:34:00,25.0,22.8,30.26,North,5,2.0,4.0,91,0.00,,---,0.00,VWS V14.01,2013-01-06 15:34:00,
2013-01-06 07:39:00,24.9,22.6,30.27,North,5,2.0,4.0,91,0.00,,---,0.00,VWS V14.01,2013-01-06 15:39:00,
2013-01-06 07:44:00,24.8,22.5,30.27,North,5,0.0,4.0,91,0.00,,---,0.00,VWS V14.01,2013-01-06 15:44:00,
2013-01-06 07:45:00,26.5,24.0,30.28,North,360,0.0,0.0,90,0.00,,---,0.00,VWS V14.01,2013-01-06 15:45:00,
2013-01-06 07:49:00,24.8,22.5,30.27,North,5,0.0,0.0,91,0.00,,---,0.00,VWS V14.01,2013-01-06 15:49:00,
2013-01-06 07:54:00,24.9,22.6,30.27,North,5,0.0,0.0,91,0.00,,---,0.00,VWS V14.01,2013-01-06 15:54:00,
2013-01-06 07:59:00,25.3,23.0,30.27,North,5,0.0,0.0,91,0.00,,---,0.00,VWS V14.01,2013-01-06 15:59:00,
2013-01-06 08:00:00,26.6,24.1,30.27,North,11,0.0,0.0,90,0.00,,---,0.00,VWS V14.01,2013-01-06 16:00:00,
2013-01-06 08:04:00,25.3,23.0,30.27,North,5,0.0,0.0,91,0.00,,---,0.00,VWS V14.01,2013-01-06 16:04:00,
2013-01-06 08:09:00,25.4,22.9,30.27,North,5,0.0,0.0,90,0.00,,---,0.00,VWS V14.01,2013-01-06 16:09:00,
2013-01-06 08:14:00,25.4,22.9,30.27,North,360,0.0,0.0,90,0.00,,---,0.00,VWS V14.01,2013-01-06 16:14:00,
2013-01-06 08:15:00,26.6,24.1,30.28,NNE,22,0.0,0.0,90,0.00,,---,0.00,VWS V14.01,2013-01-06 16:15:00,
2013-01-06 08:19:00,25.7,23.2,30.27,North,360,0.0,0.0,90,0.00,,---,0.00,VWS V14.01,2013-01-06 16:19:00,
2013-01-06 08:24:00,25.8,23.3,30.26,North,360,0.0,0.0,90,0.00,,---,0.00,VWS V14.01,2013-01-06 16:24:00,
2013-01-06 08:29:00,25.8,23.3,30.27,North,5,0.0,0.0,90,0.00,,---,0.00,VWS V14.01,2013-01-06 16:29:00,
2013-01-06 08:30:00,27.3,24.8,30.28,NNE,23,0.0,0.0,90,0.00,,---,0.00,VWS V14.01,2013-01-06 16:30:00,
2013-01-06 08:34:00,25.8,23.0,30.27,North,5,0.0,0.0,89,0.00,,---,0.00,VWS V14.01,2013-01-06 16:34:00,
2013-01-06 08:39:00,26.1,23.6,30.27,North,360,0.0,0.0,90,0.00,,---,0.00,VWS V14.01,2013-01-06 16:39:00,
2013-01-06 08:44:00,26.5,24.0,30.28,North,360,0.0,0.0,90,0.00,,---,0.00,VWS V14.01,2013-01-06 16:44:00,
2013-01-06 08:45:00,26.6,23.5,30.28,NNE,26,0.0,0.0,88,0.00,,---,0.00,VWS V14.01,2013-01-06 16:45:00,
2013-01-06 08:49:00,26.6,24.1,30.28,North,5,0.0,0.0,90,0.00,,---,0.00,VWS V14.01,2013-01-06 16:49:00,
2013-01-06 08:54:00,26.7,23.9,30.28,North,5,0.0,0.0,89,0.00,,---,0.00,VWS V14.01,2013-01-06 16:54:00,
2013-01-06 08:59:00,26.6,23.8,30.27,North,10,0.0,0.0,89,0.00,,---,0.00,VWS V14.01,2013-01-06 16:59:00,
2013-01-06 09:00:00,25.8,22.5,30.28,NNE,18,0.0,0.0,87,0.00,,---,0.00,VWS V14.01,2013-01-06 17:00:00,
2013-01-06 09:04:00,26.3,23.8,30.28,NNE,22,0.0,0.0,90,0.00,,---,0.00,VWS V14.01,2013-01-06 17:04:00,
2013-01-06 09:09:00,26.5,24.0,30.28,NNE,23,0.0,0.0,90,0.00,,---,0.00,VWS V14.01,2013-01-06 17:09:00,
2013-01-06 09:14:00,26.6,24.3,30.28,NNE,23,0.0,0.0,91,0.00,,---,0.00,VWS V14.01,2013-01-06 17:14:00,
2013-01-06 09:15:00,27.3,24.2,30.28,NNE,19,0.0,0.0,88,0.00,,---,0.00,VWS V14.01,2013-01-06 17:15:00,
2013-01-06 09:19:00,26.7,24.2,30.28,NNE,23,0.0,0.0,90,0.00,,---,0.00,VWS V14.01,2013-01-06 17:19:00,
2013-01-06 09:24:00,26.9,24.4,30.28,NNE,22,0.0,0.0,90,0.00,,---,0.00,VWS V14.01,2013-01-06 17:24:00,
2013-01-06 09:29:00,27.2,24.7,30.28,NNE,23,0.0,0.0,90,0.00,,---,0.00,VWS V14.01,2013-01-06 17:29:00,
2013-01-06 09:30:00,28.6,24.7,30.28,NNE,18,0.0,0.0,85,0.00,,---,0.00,VWS V14.01,2013-01-06 17:30:00,
2013-01-06 09:34:00,27.1,24.6,30.28,NNE,24,0.0,0.0,90,0.00,,---,0.00,VWS V14.01,2013-01-06 17:34:00,
2013-01-06 09:39:00,27.0,24.2,30.28,NNE,25,0.0,0.0,89,0.00,,---,0.00,VWS V14.01,2013-01-06 17:39:00,
2013-01-06 09:44:00,26.7,23.9,30.28,NNE,25,0.0,0.0,89,0.00,,---,0.00,VWS V14.01,2013-01-06 17:44:00,
2013-01-06 09:45:00,30.3,25.5,30.27,NNE,19,0.0,0.0,82,0.01,,---,0.01,VWS V14.01,2013-01-06 17:45:00,
2013-01-06 09:49:00,26.2,22.9,30.28,NNE,21,0.0,0.0,87,0.00,,---,0.00,VWS V14.01,2013-01-06 17:49:00,
2013-01-06 09:54:00,25.9,22.8,30.28,NNE,19,0.0,0.0,88,0.00,,---,0.00,VWS V14.01,2013-01-06 17:54:00,
2013-01-06 09:59:00,25.8,22.5,30.28,NNE,19,0.0,0.0,87,0.00,,---,0.00,VWS V14.01,2013-01-06 17:59:00,
2013-01-06 10:00:00,29.9,24.8,30.27,NNE,19,0.0,0.0,81,0.03,,---,0.03,VWS V14.01,2013-01-06 18:00:00,
2013-01-06 10:04:00,25.9,22.8,30.28,NNE,18,0.0,0.0,88,0.00,,---,0.00,VWS V14.01,2013-01-06 18:04:00,
2013-01-06 10:09:00,26.4,23.3,30.28,NNE,19,0.0,0.0,88,0.00,,---,0.00,VWS V14.01,2013-01-06 18:09:00,
2013-01-06 10:14:00,27.1,24.0,30.28,NNE,18,0.0,0.0,88,0.00,,---,0.00,VWS V14.01,2013-01-06 18:14:00,
2013-01-06 10:15:00,29.9,25.4,30.26,NNE,19,0.0,0.0,83,0.04,,---,0.04,VWS V14.01,2013-01-06 18:15:00,
2013-01-06 10:19:00,27.8,24.4,30.28,NNE,19,0.0,0.0,87,0.00,,---,0.00,VWS V14.01,2013-01-06 18:19:00,
2013-01-06 10:24:00,28.0,24.4,30.28,NNE,19,0.0,0.0,86,0.00,,---,0.00,VWS V14.01,2013-01-06 18:24:00,
2013-01-06 10:29:00,28.5,24.6,30.28,NNE,19,0.0,0.0,85,0.00,,---,0.00,VWS V14.01,2013-01-06 18:29:00,
2013-01-06 10:30:00,32.6,26.2,30.25,NNE,18,0.0,0.0,77,0.05,,---,0.05,VWS V14.01,2013-01-06 18:30:00,
2013-01-06 10:34:00,29.0,24.8,30.28,NNE,19,0.0,0.0,84,0.00,,---,0.00,VWS V14.01,2013-01-06 18:34:00,
2013-01-06 10:39:00,29.5,25.0,30.27,NNE,19,0.0,0.0,83,0.01,,---,0.01,VWS V14.01,2013-01-06 18:39:00,
2013-01-06 10:44:00,30.2,25.4,30.27,NNE,18,0.0,0.0,82,0.01,,---,0.01,VWS V14.01,2013-01-06 18:44:00,
2013-01-06 10:45:00,29.4,24.3,30.24,NNE,19,0.0,0.0,81,0.06,,---,0.06,VWS V14.01,2013-01-06 18:45:00,
2013-01-06 10:49:00,30.5,25.1,30.27,NNE,19,0.0,0.0,80,0.02,,---,0.02,VWS V14.01,2013-01-06 18:49:00,
2013-01-06 10:54:00,30.2,25.1,30.27,NNE,18,0.0,0.0,81,0.02,,---,0.02,VWS V14.01,2013-01-06 18:54:00,
2013-01-06 10:59:00,30.0,24.9,30.27,NNE,19,0.0,0.0,81,0.03,,---,0.03,VWS V14.01,2013-01-06 18:59:00,
2013-01-06 11:00:00,30.2,25.1,30.24,NNW,329,4.0,4.0,81,0.05,,---,0.06,VWS V14.01,2013-01-06 19:00:00,
2013-01-06 11:04:00,29.3,24.2,30.26,NNE,19,0.0,0.0,81,0.04,,---,0.04,VWS V14.01,2013-01-06 19:04:00,
2013-01-06 11:09:00,29.3,24.5,30.26,NNE,19,0.0,0.0,82,0.04,,---,0.04,VWS V14.01,2013-01-06 19:09:00,
2013-01-06 11:14:00,29.7,25.2,30.26,NNE,19,0.0,0.0,83,0.04,,---,0.04,VWS V14.01,2013-01-06 19:14:00,
2013-01-06 11:15:00,29.8,25.6,30.24,NW,313,4.0,5.0,84,0.03,,---,0.06,VWS V14.01,2013-01-06 19:15:00,
2013-01-06 11:19:00,30.8,26.3,30.26,NNE,19,0.0,0.0,83,0.05,,---,0.05,VWS V14.01,2013-01-06 19:19:00,
2013-01-06 11:24:00,32.5,27.0,30.26,NNE,18,0.0,0.0,80,0.05,,---,0.05,VWS V14.01,2013-01-06 19:24:00,
2013-01-06 11:29:00,32.7,26.3,30.25,NNE,18,0.0,0.0,77,0.05,,---,0.05,VWS V14.01,2013-01-06 19:29:00,
2013-01-06 11:30:00,30.9,26.1,30.23,NW,313,0.0,4.0,82,0.03,,---,0.07,VWS V14.01,2013-01-06 19:30:00,
2013-01-06 11:34:00,32.0,25.3,30.25,NNE,19,0.0,0.0,76,0.06,,---,0.06,VWS V14.01,2013-01-06 19:34:00,
2013-01-06 11:39:00,30.5,24.5,30.25,NNE,19,0.0,0.0,78,0.06,,---,0.06,VWS V14.01,2013-01-06 19:39:00,
2013-01-06 11:44:00,29.4,24.0,30.24,NNE,19,0.0,0.0,80,0.06,,---,0.06,VWS V14.01,2013-01-06 19:44:00,
2013-01-06 11:45:00,31.7,26.5,30.22,NW,313,0.0,0.0,81,0.02,,---,0.07,VWS V14.01,2013-01-06 19:45:00,
2013-01-06 11:49:00,29.7,24.9,30.24,NNE,19,0.0,0.0,82,0.05,,---,0.06,VWS V14.01,2013-01-06 19:49:00,
2013-01-06 11:54:00,30.2,25.1,30.24,NNE,19,0.0,0.0,81,0.05,,---,0.06,VWS V14.01,2013-01-06 19:54:00,
2013-01-06 12:00:00,30.2,25.1,30.24,NNE,19,0.0,1.0,81,0.05,,---,0.06,VWS V14.01,2013-01-06 20:00:00,
2013-01-06 12:05:00,30.0,25.2,30.24,NW,313,5.0,5.0,82,0.03,,---,0.06,VWS V14.01,2013-01-06 20:05:00,
2013-01-06 12:10:00,29.7,25.2,30.24,NW,313,5.0,5.0,83,0.03,,---,0.06,VWS V14.01,2013-01-06 20:10:00,
2013-01-06 12:11:00,29.7,25.2,30.24,NW,313,3.0,5.0,83,0.03,,---,0.06,VWS V14.01,2013-01-06 20:11:00,
2013-01-06 12:13:00,29.7,25.2,30.24,NW,313,4.0,5.0,83,0.03,,---,0.06,VWS V14.01,2013-01-06 20:13:00,
2013-01-06 12:15:00,33.2,27.1,30.20,SE,126,0.0,0.0,78,0.01,,---,0.07,VWS V14.01,2013-01-06 20:15:00,
2013-01-06 12:18:00,29.9,25.7,30.23,NW,313,0.0,4.0,84,0.02,,---,0.06,VWS V14.01,2013-01-06 20:18:00,
2013-01-06 12:23:00,30.3,26.1,30.23,NW,313,0.0,4.0,84,0.03,,---,0.07,VWS V14.01,2013-01-06 20:23:00,
2013-01-06 12:28:00,30.6,26.1,30.23,NW,313,0.0,4.0,83,0.03,,---,0.07,VWS V14.01,2013-01-06 20:28:00,
2013-01-06 12:30:00,32.8,26.7,30.19,SE,126,0.0,0.0,78,0.02,,---,0.08,VWS V14.01,2013-01-06 20:30:00,
2013-01-06 12:33:00,31.1,26.3,30.23,NW,313,0.0,0.0,82,0.02,,---,0.07,VWS V14.01,2013-01-06 20:33:00,
2013-01-06 12:38:00,31.3,26.2,30.23,NW,313,0.0,0.0,81,0.02,,---,0.07,VWS V14.01,2013-01-06 20:38:00,
2013-01-06 12:43:00,31.5,26.4,30.23,NW,313,0.0,0.0,81,0.02,,---,0.07,VWS V14.01,2013-01-06 20:43:00,
2013-01-06 12:45:00,32.8,26.7,30.19,SE,126,0.0,4.0,78,0.01,,---,0.08,VWS V14.01,2013-01-06 20:45:00,
2013-01-06 12:48:00,31.9,26.7,30.22,NW,313,0.0,0.0,81,0.01,,---,0.07,VWS V14.01,2013-01-06 20:48:00,
2013-01-06 12:53:00,32.6,27.4,30.21,NW,313,0.0,0.0,81,0.01,,---,0.07,VWS V14.01,2013-01-06 20:53:00,
2013-01-06 12:58:00,33.4,27.9,30.21,NW,313,0.0,0.0,80,0.01,,---,0.07,VWS V14.01,2013-01-06 20:58:00,
2013-01-06 13:00:00,33.0,27.2,30.19,SE,125,0.0,0.0,79,0.01,,---,0.08,VWS V14.01,2013-01-06 21:00:00,
2013-01-06 13:01:00,33.5,27.4,30.21,NW,313,0.0,0.0,78,0.01,,---,0.07,VWS V14.01,2013-01-06 21:01:00,
2013-01-06 13:06:00,33.8,27.4,30.20,NW,313,0.0,0.0,77,0.01,,---,0.07,VWS V14.01,2013-01-06 21:06:00,
2013-01-06 13:11:00,33.5,27.1,30.21,WNW,286,0.0,0.0,77,0.01,,---,0.07,VWS V14.01,2013-01-06 21:11:00,
2013-01-06 13:15:00,33.0,27.2,30.19,West,278,0.0,0.0,79,0.01,,---,0.08,VWS V14.01,2013-01-06 21:15:00,
2013-01-06 13:16:00,33.1,27.0,30.20,SE,126,0.0,0.0,78,0.01,,---,0.07,VWS V14.01,2013-01-06 21:16:00,
2013-01-06 13:21:00,32.8,26.7,30.20,SE,126,0.0,0.0,78,0.02,,---,0.08,VWS V14.01,2013-01-06 21:21:00,
2013-01-06 13:25:00,32.6,26.5,30.19,SE,126,0.0,0.0,78,0.02,,---,0.08,VWS V14.01,2013-01-06 21:25:00,
2013-01-06 13:30:00,32.8,26.7,30.19,SE,126,0.0,0.0,78,0.01,,---,0.08,VWS V14.01,2013-01-06 21:30:00,
2013-01-06 13:35:00,33.1,27.0,30.19,SE,126,0.0,0.0,78,0.01,,---,0.08,VWS V14.01,2013-01-06 21:35:00,
2013-01-06 13:40:00,33.1,27.0,30.19,SE,126,4.0,4.0,78,0.01,,---,0.08,VWS V14.01,2013-01-06 21:40:00,
2013-01-06 13:45:00,32.8,26.7,30.19,SE,126,0.0,0.0,78,0.01,,---,0.08,VWS V14.01,2013-01-06 21:45:00,
2013-01-06 13:50:00,32.8,27.0,30.19,SE,126,0.0,0.0,79,0.01,,---,0.08,VWS V14.01,2013-01-06 21:50:00,
2013-01-06 13:55:00,32.9,27.1,30.19,SE,126,0.0,0.0,79,0.01,,---,0.08,VWS V14.01,2013-01-06 21:55:00,
2013-01-06 14:00:00,33.0,27.2,30.19,SE,125,0.0,0.0,79,0.01,,---,0.08,VWS V14.01,2013-01-06 22:00:00,
2013-01-06 14:05:00,32.8,27.0,30.19,West,277,0.0,0.0,79,0.01,,---,0.08,VWS V14.01,2013-01-06 22:05:00,
2013-01-06 14:10:00,32.9,27.4,30.19,West,277,0.0,0.0,80,0.01,,---,0.08,VWS V14.01,2013-01-06 22:10:00,
2013-01-06 14:15:00,33.0,27.2,30.19,West,278,0.0,0.0,79,0.01,,---,0.08,VWS V14.01,2013-01-06 22:15:00,
2013-01-06 14:20:00,33.3,27.2,30.19,West,277,0.0,0.0,78,0.01,,---,0.08,VWS V14.01,2013-01-06 22:20:00,
2013-01-06 14:25:00,33.9,27.8,30.19,West,277,0.0,0.0,78,0.01,,---,0.08,VWS V14.01,2013-01-06 22:25:00,
2013-01-06 14:30:00,34.4,28.0,30.19,West,278,0.0,0.0,77,0.00,,---,0.08,VWS V14.01,2013-01-06 22:30:00,
2013-01-06 14:35:00,34.6,27.5,30.19,West,278,0.0,0.0,75,0.00,,---,0.08,VWS V14.01,2013-01-06 22:35:00,
2013-01-06 14:40:00,34.8,27.7,30.19,West,277,0.0,0.0,75,0.00,,---,0.08,VWS V14.01,2013-01-06 22:40:00,
2013-01-06 14:45:00,34.8,27.7,30.19,West,277,0.0,0.0,75,0.00,,---,0.08,VWS V14.01,2013-01-06 22:45:00,
2013-01-06 14:50:00,34.5,27.4,30.19,West,278,0.0,0.0,75,0.00,,---,0.08,VWS V14.01,2013-01-06 22:50:00,
2013-01-06 14:55:00,34.6,27.5,30.19,West,278,0.0,0.0,75,0.00,,---,0.08,VWS V14.01,2013-01-06 22:55:00,
2013-01-06 15:00:00,34.9,27.8,30.19,West,278,0.0,0.0,75,0.00,,---,0.08,VWS V14.01,2013-01-06 23:00:00,
2013-01-06 15:05:00,35.3,27.9,30.19,West,277,0.0,0.0,74,0.00,,---,0.08,VWS V14.01,2013-01-06 23:05:00,
2013-01-06 15:10:00,35.6,27.8,30.19,West,277,0.0,0.0,73,0.00,,---,0.08,VWS V14.01,2013-01-06 23:10:00,
2013-01-06 15:15:00,35.4,27.6,30.19,West,277,0.0,0.0,73,0.00,,---,0.08,VWS V14.01,2013-01-06 23:15:00,
2013-01-06 15:20:00,35.1,27.3,30.19,West,278,0.0,0.0,73,0.00,,---,0.08,VWS V14.01,2013-01-06 23:20:00,
2013-01-06 15:25:00,34.9,27.5,30.19,West,278,0.0,0.0,74,0.00,,---,0.08,VWS V14.01,2013-01-06 23:25:00,
2013-01-06 15:30:00,34.7,27.3,30.19,West,278,0.0,0.0,74,0.00,,---,0.08,VWS V14.01,2013-01-06 23:30:00,
2013-01-06 15:35:00,34.4,27.0,30.19,West,277,0.0,0.0,74,0.00,,---,0.08,VWS V14.01,2013-01-06 23:35:00,
2013-01-06 15:40:00,34.4,27.3,30.19,West,278,0.0,0.0,75,0.00,,---,0.08,VWS V14.01,2013-01-06 23:40:00,
2013-01-06 15:45:00,34.4,27.3,30.18,West,277,0.0,0.0,75,0.00,,---,0.08,VWS V14.01,2013-01-06 23:45:00,
2013-01-06 15:50:00,34.4,27.3,30.18,West,278,0.0,0.0,75,0.00,,---,0.08,VWS V14.01,2013-01-06 23:50:00,
2013-01-06 15:55:00,34.0,27.2,30.19,West,278,0.0,0.0,76,0.00,,---,0.08,VWS V14.01,2013-01-06 23:55:00,
2013-01-06 16:00:00,33.2,26.5,30.19,West,278,0.0,0.0,76,0.00,,---,0.08,VWS V14.01,2013-01-07 00:00:00,
2013-01-06 16:05:00,32.2,26.1,30.19,West,277,0.0,0.0,78,0.00,,---,0.08,VWS V14.01,2013-01-07 00:05:00,
2013-01-06 16:10:00,31.7,26.2,30.19,West,277,0.0,0.0,80,0.00,,---,0.08,VWS V14.01,2013-01-07 00:10:00,
2013-01-06 16:15:00,31.4,26.0,30.19,West,278,0.0,0.0,80,0.00,,---,0.08,VWS V14.01,2013-01-07 00:15:00,
2013-01-06 16:20:00,31.1,26.0,30.18,West,278,0.0,0.0,81,0.00,,---,0.08,VWS V14.01,2013-01-07 00:20:00,
2013-01-06 16:25:00,30.8,25.7,30.19,West,278,0.0,0.0,81,0.00,,---,0.08,VWS V14.01,2013-01-07 00:25:00,
2013-01-06 16:30:00,30.3,25.5,30.18,West,277,0.0,0.0,82,0.00,,---,0.08,VWS V14.01,2013-01-07 00:30:00,
2013-01-06 16:35:00,30.2,25.7,30.18,West,278,0.0,0.0,83,0.00,,---,0.08,VWS V14.01,2013-01-07 00:35:00,
2013-01-06 16:40:00,30.3,26.1,30.18,West,278,0.0,0.0,84,0.00,,---,0.08,VWS V14.01,2013-01-07 00:40:00,
2013-01-06 16:45:00,30.8,26.3,30.18,West,278,0.0,0.0,83,0.00,,---,0.08,VWS V14.01,2013-01-07 00:45:00,
2013-01-06 16:50:00,30.7,25.6,30.18,West,278,0.0,0.0,81,0.00,,---,0.08,VWS V14.01,2013-01-07 00:50:00,
2013-01-06 16:55:00,29.3,24.2,30.17,North,360,0.0,0.0,81,0.00,,---,0.08,VWS V14.01,2013-01-07 00:55:00,
2013-01-06 17:00:00,28.7,24.8,30.17,NNE,22,3.0,3.0,85,0.00,,---,0.08,VWS V14.01,2013-01-07 01:00:00,
2013-01-06 17:05:00,27.8,23.0,30.17,NE,47,3.0,5.0,82,0.00,,---,0.08,VWS V14.01,2013-01-07 01:05:00,
2013-01-06 17:10:00,26.5,22.6,30.18,ESE,109,4.0,5.0,85,0.00,,---,0.08,VWS V14.01,2013-01-07 01:10:00,
2013-01-06 17:15:00,26.9,23.6,30.17,ENE,72,6.0,7.0,87,0.00,,---,0.08,VWS V14.01,2013-01-07 01:15:00,
2013-01-06 17:20:00,28.2,25.1,30.18,NE,49,7.0,11.0,88,0.00,,---,0.08,VWS V14.01,2013-01-07 01:20:00,
2013-01-06 17:25:00,28.2,24.8,30.19,NE,47,5.0,11.0,87,0.00,,---,0.08,VWS V14.01,2013-01-07 01:25:00,
2013-01-06 17:30:00,28.6,25.5,30.19,ENE,66,5.0,11.0,88,0.00,,---,0.08,VWS V14.01,2013-01-07 01:30:00,
2013-01-06 17:35:00,28.1,24.2,30.19,ENE,63,0.0,5.0,85,0.00,,---,0.08,VWS V14.01,2013-01-07 01:35:00,
2013-01-06 17:40:00,26.4,22.0,30.20,ENE,63,0.0,5.0,83,0.00,,---,0.08,VWS V14.01,2013-01-07 01:40:00,
2013-01-06 17:45:00,24.7,20.8,30.20,ENE,63,0.0,5.0,85,0.00,,---,0.08,VWS V14.01,2013-01-07 01:45:00,
2013-01-06 17:50:00,25.2,22.4,30.21,ENE,63,0.0,0.0,89,0.00,,---,0.08,VWS V14.01,2013-01-07 01:50:00,
2013-01-06 17:55:00,26.3,23.8,30.21,ENE,63,0.0,0.0,90,0.00,,---,0.08,VWS V14.01,2013-01-07 01:55:00,
2013-01-06 18:00:00,27.6,25.1,30.20,ENE,59,2.0,4.0,90,0.00,,---,0.08,VWS V14.01,2013-01-07 02:00:00,
2013-01-06 18:05:00,28.3,25.5,30.20,NE,41,6.0,6.0,89,0.00,,---,0.08,VWS V14.01,2013-01-07 02:05:00,
2013-01-06 18:10:00,29.4,26.6,30.20,NE,49,11.0,11.0,89,0.00,,---,0.08,VWS V14.01,2013-01-07 02:10:00,
2013-01-06 18:15:00,30.7,27.9,30.20,NE,37,9.0,11.0,89,0.00,,---,0.08,VWS V14.01,2013-01-07 02:15:00,
2013-01-06 18:20:00,30.8,26.8,30.21,NE,55,6.0,10.0,85,0.00,,---,0.08,VWS V14.01,2013-01-07 02:20:00,
2013-01-06 18:25:00,30.1,26.1,30.21,NE,51,4.0,10.0,85,0.00,,---,0.08,VWS V14.01,2013-01-07 02:25:00,
2013-01-06 18:30:00,29.8,26.1,30.21,NE,36,4.0,10.0,86,0.00,,---,0.08,VWS V14.01,2013-01-07 02:30:00,
2013-01-06 18:35:00,29.9,26.0,30.20,NE,41,4.0,4.0,85,0.00,,---,0.08,VWS V14.01,2013-01-07 02:35:00,
2013-01-06 18:40:00,30.4,26.4,30.20,NE,42,3.0,4.0,85,0.00,,---,0.08,VWS V14.01,2013-01-07 02:40:00,
2013-01-06 18:45:00,30.2,25.4,30.20,ENE,61,3.0,4.0,82,0.00,,---,0.08,VWS V14.01,2013-01-07 02:45:00,
2013-01-06 18:50:00,29.6,25.4,30.21,ENE,58,3.0,5.0,84,0.00,,---,0.08,VWS V14.01,2013-01-07 02:50:00,
2013-01-06 18:55:00,28.9,25.2,30.21,NE,51,5.0,5.0,86,0.00,,---,0.08,VWS V14.01,2013-01-07 02:55:00,
2013-01-06 19:00:00,28.3,24.7,30.21,ENE,57,6.0,6.0,86,0.00,,---,0.08,VWS V14.01,2013-01-07 03:00:00,
2013-01-06 19:05:00,28.9,25.8,30.21,NE,55,5.0,6.0,88,0.00,,---,0.08,VWS V14.01,2013-01-07 03:05:00,
2013-01-06 19:10:00,28.8,25.7,30.20,NE,55,5.0,6.0,88,0.00,,---,0.08,VWS V14.01,2013-01-07 03:10:00,
2013-01-06 19:15:00,28.7,25.3,30.20,ENE,57,5.0,6.0,87,0.00,,---,0.08,VWS V14.01,2013-01-07 03:15:00,
2013-01-06 19:20:00,27.9,24.5,30.20,ENE,58,4.0,6.0,87,0.00,,---,0.08,VWS V14.01,2013-01-07 03:20:00,
2013-01-06 19:25:00,28.0,24.9,30.19,NE,53,4.0,6.0,88,0.00,,---,0.08,VWS V14.01,2013-01-07 03:25:00,
2013-01-06 19:30:00,27.2,23.9,30.19,NE,53,3.0,6.0,87,0.00,,---,0.08,VWS V14.01,2013-01-07 03:30:00,
2013-01-06 19:35:00,27.0,24.2,30.19,NE,55,4.0,5.0,89,0.00,,---,0.08,VWS V14.01,2013-01-07 03:35:00,
2013-01-06 19:39:00,27.3,24.5,30.19,NE,55,3.0,5.0,89,0.00,,---,0.08,VWS V14.01,2013-01-07 03:39:00,
2013-01-06 19:44:00,27.4,24.6,30.19,NE,53,3.0,5.0,89,0.00,,---,0.08,VWS V14.01,2013-01-07 03:44:00,
2013-01-06 19:45:00,25.0,22.8,30.21,NE,48,0.0,0.0,91,0.00,,---,0.08,VWS V14.01,2013-01-07 03:45:00,
2013-01-06 19:49:00,26.0,22.1,30.19,NE,46,0.0,4.0,85,0.00,,---,0.08,VWS V14.01,2013-01-07 03:49:00,
2013-01-06 19:54:00,24.4,20.8,30.19,NE,46,0.0,4.0,86,0.00,,---,0.08,VWS V14.01,2013-01-07 03:54:00,
2013-01-06 19:59:00,23.4,20.1,30.19,NE,46,0.0,4.0,87,0.00,,---,0.08,VWS V14.01,2013-01-07 03:59:00,
2013-01-06 20:00:00,27.1,24.8,30.21,NE,49,4.0,5.0,91,0.00,,---,0.08,VWS V14.01,2013-01-07 04:00:00,
2013-01-06 20:04:00,23.8,21.3,30.19,NE,46,0.0,0.0,90,0.00,,---,0.08,VWS V14.01,2013-01-07 04:04:00,
2013-01-06 20:09:00,25.4,23.1,30.19,NE,48,0.0,3.0,91,0.00,,---,0.08,VWS V14.01,2013-01-07 04:09:00,
2013-01-06 20:14:00,25.7,23.4,30.19,NE,48,3.0,4.0,91,0.00,,---,0.08,VWS V14.01,2013-01-07 04:14:00,
2013-01-06 20:15:00,29.4,26.6,30.21,ENE,57,4.0,7.0,89,0.00,,---,0.08,VWS V14.01,2013-01-07 04:15:00,
2013-01-06 20:19:00,24.9,22.1,30.20,NE,48,0.0,2.0,89,0.00,,---,0.08,VWS V14.01,2013-01-07 04:19:00,
2013-01-06 20:24:00,24.0,21.0,30.20,NE,48,0.0,2.0,88,0.00,,---,0.08,VWS V14.01,2013-01-07 04:24:00,
2013-01-06 20:29:00,23.6,20.8,30.21,NE,48,0.0,2.0,89,0.00,,---,0.08,VWS V14.01,2013-01-07 04:29:00,
2013-01-06 20:30:00,29.4,26.0,30.20,ENE,59,2.0,6.0,87,0.00,,---,0.08,VWS V14.01,2013-01-07 04:30:00,
2013-01-06 20:34:00,23.5,21.0,30.21,NE,48,0.0,0.0,90,0.00,,---,0.08,VWS V14.01,2013-01-07 04:34:00,
2013-01-06 20:39:00,24.1,21.9,30.21,NE,48,0.0,0.0,91,0.00,,---,0.08,VWS V14.01,2013-01-07 04:39:00,
2013-01-06 20:44:00,24.9,22.6,30.21,NE,48,0.0,0.0,91,0.00,,---,0.08,VWS V14.01,2013-01-07 04:44:00,
2013-01-06 20:45:00,29.1,26.0,30.21,ENE,59,0.0,3.0,88,0.00,,---,0.08,VWS V14.01,2013-01-07 04:45:00,
2013-01-06 20:49:00,25.8,23.5,30.22,NE,48,2.0,2.0,91,0.00,,---,0.08,VWS V14.01,2013-01-07 04:49:00,
2013-01-06 20:54:00,26.2,23.9,30.21,NE,48,0.0,3.0,91,0.00,,---,0.08,VWS V14.01,2013-01-07 04:54:00,
2013-01-06 20:59:00,26.9,24.6,30.21,NE,49,4.0,5.0,91,0.00,,---,0.08,VWS V14.01,2013-01-07 04:59:00,
2013-01-06 21:00:00,27.0,24.7,30.21,NE,49,5.0,5.0,91,0.00,,---,0.08,VWS V14.01,2013-01-07 05:00:00,
2013-01-06 21:05:00,28.1,25.5,30.21,NE,52,6.0,7.0,90,0.00,,---,0.08,VWS V14.01,2013-01-07 05:05:00,
2013-01-06 21:10:00,29.0,26.4,30.21,NE,56,5.0,7.0,90,0.00,,---,0.08,VWS V14.01,2013-01-07 05:10:00,
2013-01-06 21:15:00,29.4,26.6,30.21,ENE,57,4.0,4.0,89,0.00,,---,0.08,VWS V14.01,2013-01-07 05:15:00,
2013-01-06 21:20:00,29.4,26.3,30.21,ENE,59,4.0,6.0,88,0.00,,---,0.08,VWS V14.01,2013-01-07 05:20:00,
2013-01-06 21:25:00,29.4,26.0,30.20,ENE,59,4.0,6.0,87,0.00,,---,0.08,VWS V14.01,2013-01-07 05:25:00,
2013-01-06 21:30:00,29.4,26.0,30.20,ENE,59,2.0,6.0,87,0.00,,---,0.08,VWS V14.01,2013-01-07 05:30:00,
2013-01-06 21:35:00,29.3,25.9,30.21,ENE,59,0.0,3.0,87,0.00,,---,0.08,VWS V14.01,2013-01-07 05:35:00,
2013-01-06 21:40:00,29.2,25.8,30.21,ENE,59,0.0,3.0,87,0.00,,---,0.08,VWS V14.01,2013-01-07 05:40:00,
2013-01-06 21:45:00,29.1,26.0,30.21,ENE,59,0.0,3.0,88,0.00,,---,0.08,VWS V14.01,2013-01-07 05:45:00,
2013-01-06 21:50:00,28.9,25.5,30.21,ENE,59,0.0,0.0,87,0.00,,---,0.08,VWS V14.01,2013-01-07 05:50:00,
2013-01-06 21:55:00,28.7,25.6,30.20,ENE,59,0.0,0.0,88,0.00,,---,0.08,VWS V14.01,2013-01-07 05:55:00,
2013-01-06 22:00:00,28.7,25.6,30.20,ENE,59,0.0,0.0,88,0.00,,---,0.08,VWS V14.01,2013-01-07 06:00:00,
2013-01-06 22:05:00,28.9,25.2,30.20,ENE,59,2.0,3.0,86,0.00,,---,0.08,VWS V14.01,2013-01-07 06:05:00,
2013-01-06 22:10:00,29.6,26.2,30.21,ENE,59,0.0,3.0,87,0.00,,---,0.08,VWS V14.01,2013-01-07 06:10:00,
2013-01-06 22:15:00,29.7,26.3,30.21,ENE,59,0.0,3.0,87,0.00,,---,0.08,VWS V14.01,2013-01-07 06:15:00,
2013-01-06 22:20:00,29.4,26.0,30.20,ENE,59,0.0,0.0,87,0.00,,---,0.08,VWS V14.01,2013-01-07 06:20:00,
2013-01-06 22:25:00,29.2,25.8,30.20,ENE,59,0.0,0.0,87,0.00,,---,0.08,VWS V14.01,2013-01-07 06:25:00,
2013-01-06 22:30:00,29.4,26.0,30.20,ENE,68,2.0,4.0,87,0.00,,---,0.08,VWS V14.01,2013-01-07 06:30:00,
2013-01-06 22:35:00,29.7,26.0,30.20,ENE,63,2.0,4.0,86,0.00,,---,0.08,VWS V14.01,2013-01-07 06:35:00,
2013-01-06 22:40:00,29.7,26.0,30.20,ENE,59,0.0,4.0,86,0.00,,---,0.08,VWS V14.01,2013-01-07 06:40:00,
2013-01-06 22:45:00,29.4,25.7,30.20,NE,40,0.0,4.0,86,0.00,,---,0.08,VWS V14.01,2013-01-07 06:45:00,
2013-01-06 22:50:00,29.4,26.0,30.20,NE,39,2.0,2.0,87,0.00,,---,0.08,VWS V14.01,2013-01-07 06:50:00,
2013-01-06 22:55:00,29.6,25.9,30.20,North,360,0.0,2.0,86,0.00,,---,0.08,VWS V14.01,2013-01-07 06:55:00,
2013-01-06 23:00:00,29.9,26.2,30.20,North,5,0.0,2.0,86,0.00,,---,0.08,VWS V14.01,2013-01-07 07:00:00,
2013-01-06 23:05:00,30.0,26.0,30.20,North,5,0.0,0.0,85,0.00,,---,0.08,VWS V14.01,2013-01-07 07:05:00,
2013-01-06 23:10:00,30.2,26.2,30.19,NNE,30,4.0,4.0,85,0.00,,---,0.08,VWS V14.01,2013-01-07 07:10:00,
2013-01-06 23:15:00,30.1,26.1,30.18,NE,37,3.0,4.0,85,0.00,,---,0.08,VWS V14.01,2013-01-07 07:15:00,
2013-01-06 23:20:00,30.1,26.1,30.19,NE,40,2.0,4.0,85,0.00,,---,0.08,VWS V14.01,2013-01-07 07:20:00,
2013-01-06 23:25:00,30.4,26.1,30.19,NE,40,0.0,4.0,84,0.00,,---,0.08,VWS V14.01,2013-01-07 07:25:00,
2013-01-06 23:30:00,30.4,26.1,30.18,NE,40,0.0,4.0,84,0.00,,---,0.08,VWS V14.01,2013-01-07 07:30:00,
2013-01-06 23:35:00,30.3,26.1,30.18,NE,40,2.0,3.0,84,0.00,,---,0.08,VWS V14.01,2013-01-07 07:35:00,
2013-01-06 23:40:00,30.3,26.3,30.18,NE,40,0.0,3.0,85,0.00,,---,0.08,VWS V14.01,2013-01-07 07:40:00,
2013-01-06 23:45:00,30.2,26.2,30.18,NE,40,0.0,3.0,85,0.00,,---,0.08,VWS V14.01,2013-01-07 07:45:00,
2013-01-06 23:50:00,30.2,26.2,30.17,NE,40,0.0,0.0,85,0.00,,---,0.08,VWS V14.01,2013-01-07 07:50:00,
2013-01-06 23:55:00,30.4,26.1,30.17,NE,40,0.0,0.0,84,0.00,,---,0.08,VWS V14.01,2013-01-07 07:55:00,